MMD12C EDLW-EDNY

Flight info

Callsign MMD12C
Flight time N/A
Altitude 19000
Route GMH8Q/06 GMH Z841 BIGSU L603 BOMBI N850 INKAM T725 LAMGO T721 SUL Z714 LEBSO N851 LOKTA T122 ARFAS
Aircraft AT76/M-SDFGIRY/S

Departure

Time 2026-05-01 10:28
Airport Dortmund Airport (EDLW)

Arrival

Time N/A
Airport Bodensee Airport Friedrichshafen (EDNY)
Time Latitude Longitude Altitude Speed Heading
2026-05-01 10:19 51.51536 7.61174 419 ft 0 kts 333°
2026-05-01 10:25 51.51568 7.61094 420 ft 14 kts 281°
2026-05-01 10:26 51.51549 7.60939 415 ft 20 kts 241°
2026-05-01 10:26 51.51481 7.60749 423 ft 22 kts 241°
2026-05-01 10:26 51.51383 7.60292 423 ft 21 kts 317°
2026-05-01 10:27 51.51551 7.60423 416 ft 40 kts 59°
2026-05-01 10:27 51.52204 7.62244 519 ft 129 kts 62°
2026-05-01 10:28 51.52518 7.63051 832 ft 129 kts 63°
2026-05-01 10:28 51.53406 7.65499 1958 ft 122 kts 66°
2026-05-01 10:28 51.53824 7.66792 2162 ft 138 kts 73°
2026-05-01 10:29 51.52702 7.68992 2512 ft 166 kts 176°
2026-05-01 10:29 51.51537 7.68943 2854 ft 169 kts 175°
2026-05-01 10:30 51.49235 7.69290 3780 ft 162 kts 166°
2026-05-01 10:30 51.47047 7.70182 4608 ft 162 kts 158°
2026-05-01 10:31 51.44937 7.71453 5367 ft 163 kts 154°
2026-05-01 10:31 51.42829 7.72829 6104 ft 167 kts 154°
2026-05-01 10:32 51.40649 7.74248 6810 ft 171 kts 153°
2026-05-01 10:32 51.39547 7.74980 7178 ft 172 kts 154°
2026-05-01 10:32 51.37308 7.76408 7899 ft 175 kts 154°
2026-05-01 10:33 51.35013 7.77842 8462 ft 179 kts 154°
2026-05-01 10:33 51.32694 7.79299 9047 ft 180 kts 153°
2026-05-01 10:34 51.31532 7.80045 9360 ft 180 kts 153°
2026-05-01 10:34 51.30365 7.80788 9677 ft 181 kts 153°
2026-05-01 10:34 51.29192 7.81530 10003 ft 182 kts 154°
2026-05-01 10:35 51.26820 7.83034 10579 ft 185 kts 154°
2026-05-01 10:35 51.25619 7.83789 10827 ft 186 kts 154°
2026-05-01 10:35 51.24415 7.84550 11077 ft 187 kts 153°
2026-05-01 10:35 51.23204 7.85314 11307 ft 188 kts 153°
2026-05-01 10:36 51.20758 7.86866 11839 ft 190 kts 153°
2026-05-01 10:36 51.19522 7.87645 12129 ft 192 kts 153°
2026-05-01 10:36 51.18279 7.88430 12368 ft 193 kts 153°
2026-05-01 10:37 51.17032 7.89220 12612 ft 193 kts 151°
2026-05-01 10:37 51.14876 7.91618 13048 ft 191 kts 137°
2026-05-01 10:37 51.13839 7.92949 13309 ft 192 kts 137°
2026-05-01 10:38 51.12793 7.94288 13574 ft 194 kts 137°
2026-05-01 10:38 51.11731 7.95619 13821 ft 195 kts 138°
2026-05-01 10:38 51.10652 7.96934 14085 ft 196 kts 138°
2026-05-01 10:38 51.09560 7.98248 14271 ft 198 kts 138°
2026-05-01 10:39 51.08461 7.99570 14479 ft 198 kts 138°
2026-05-01 10:39 51.07357 8.00895 14660 ft 199 kts 138°
2026-05-01 10:39 51.06248 8.02225 14864 ft 200 kts 138°
2026-05-01 10:39 51.05136 8.03558 15074 ft 201 kts 138°
2026-05-01 10:40 51.04014 8.04904 15241 ft 204 kts 138°
2026-05-01 10:40 51.02863 8.06282 15310 ft 211 kts 138°
2026-05-01 10:40 51.01671 8.07710 15342 ft 218 kts 138°
2026-05-01 10:40 51.00439 8.09176 15360 ft 225 kts 139°
2026-05-01 10:41 50.99173 8.10692 15379 ft 231 kts 139°
2026-05-01 10:41 50.97927 8.12178 15373 ft 236 kts 139°
2026-05-01 10:41 50.95267 8.15352 15379 ft 242 kts 139°
2026-05-01 10:42 50.93911 8.16967 15371 ft 245 kts 139°
2026-05-01 10:42 50.92562 8.18568 15370 ft 246 kts 139°
2026-05-01 10:42 50.91191 8.20197 15379 ft 247 kts 139°
2026-05-01 10:42 50.89812 8.21840 15377 ft 249 kts 139°
2026-05-01 10:43 50.88420 8.23490 15376 ft 250 kts 139°
2026-05-01 10:43 50.87024 8.25145 15371 ft 251 kts 139°
2026-05-01 10:43 50.85624 8.26810 15381 ft 251 kts 139°
2026-05-01 10:43 50.84220 8.28479 15389 ft 253 kts 139°
2026-05-01 10:44 50.82809 8.30163 15383 ft 255 kts 139°
2026-05-01 10:44 50.81389 8.31856 15375 ft 256 kts 139°
2026-05-01 10:44 50.79967 8.33553 15376 ft 256 kts 139°
2026-05-01 10:44 50.78542 8.35248 15369 ft 256 kts 139°
2026-05-01 10:45 50.77118 8.36941 15373 ft 256 kts 139°
2026-05-01 10:45 50.75694 8.38632 15376 ft 256 kts 139°
2026-05-01 10:45 50.74270 8.40323 15379 ft 256 kts 139°
2026-05-01 10:45 50.73740 8.40951 15384 ft 256 kts 139°
2026-05-01 10:46 50.73516 8.41217 15387 ft 256 kts 139°
2026-05-01 10:46 50.73296 8.41478 15386 ft 257 kts 139°
2026-05-01 10:46 50.72535 8.42386 15381 ft 259 kts 139°
2026-05-01 10:47 50.71084 8.44121 15376 ft 264 kts 139°
2026-05-01 10:47 50.69615 8.45881 15378 ft 267 kts 139°
2026-05-01 10:47 50.68128 8.47658 15385 ft 270 kts 139°
2026-05-01 10:47 50.66625 8.49450 15382 ft 272 kts 139°
2026-05-01 10:48 50.65107 8.51254 15376 ft 274 kts 139°
2026-05-01 10:48 50.63582 8.53062 15382 ft 275 kts 139°
2026-05-01 10:48 50.62073 8.54857 15377 ft 276 kts 139°
2026-05-01 10:48 50.60517 8.56700 15367 ft 276 kts 139°
2026-05-01 10:49 50.58979 8.58519 15372 ft 276 kts 139°
2026-05-01 10:49 50.57463 8.60310 15378 ft 277 kts 139°
2026-05-01 10:49 50.55925 8.62126 15378 ft 277 kts 139°
2026-05-01 10:49 50.54380 8.63943 15371 ft 277 kts 139°
2026-05-01 10:50 50.54271 8.64071 15370 ft 277 kts 139°
2026-05-01 10:50 50.53714 8.64727 15373 ft 277 kts 139°
2026-05-01 10:50 50.52221 8.66568 15365 ft 264 kts 137°